contact:dominique.lefevre@mio.osupytheas.fr, maurice.libes@osupytheas.fr, didier.mallarino@osupytheas.fr
Project:EMSO http://www.emso-fr.org/EMSO-France
Depth: 2436.0 m
Title:EMSO Ligure Ouest : Data MII capteur CSTAR
DateTime,Latitude,Longitude,Instrument_Serial,Reference_Counts,Signal_Counts,Corrected_Signal_raw_counts,Calculated_Beam_c_inverse_meters,Internal_thermistor_counts
DateTime,Latitude,Longitude,Instrument_Serial,Reference_Counts,Signal_Counts,Corrected_Signal_raw_counts,Calculated_Beam_c_inverse_meters,Internal_thermistor_counts
2019-09-29T00:00:39,42.805,6.029,CST-1368DR,7742,10841,15356,0.067,551
2019-09-29T00:03:40,42.805,6.029,CST-1368DR,7742,10843,15358,0.067,550
2019-09-29T00:06:42,42.805,6.029,CST-1368DR,7742,10841,15356,0.067,551
2019-09-29T00:09:43,42.805,6.029,CST-1368DR,7742,10842,15358,0.067,551
2019-09-29T00:12:45,42.805,6.029,CST-1368DR,7742,10842,15358,0.067,551
2019-09-29T00:15:47,42.805,6.029,CST-1368DR,7742,10841,15355,0.067,551
2019-09-29T00:18:48,42.805,6.029,CST-1368DR,7742,10843,15359,0.066,551
2019-09-29T00:21:50,42.805,6.029,CST-1368DR,7742,10841,15356,0.067,551
2019-09-29T00:24:52,42.805,6.029,CST-1368DR,7742,10843,15358,0.067,551
2019-09-29T00:27:53,42.805,6.029,CST-1368DR,7742,10842,15358,0.067,551
2019-09-29T00:30:55,42.805,6.029,CST-1368DR,7742,10842,15357,0.067,551
2019-09-29T00:33:56,42.805,6.029,CST-1368DR,7742,10841,15356,0.067,551
2019-09-29T00:36:58,42.805,6.029,CST-1368DR,7742,10842,15357,0.067,551
2019-09-29T00:40:00,42.805,6.029,CST-1368DR,7742,10842,15357,0.067,551
2019-09-29T00:43:01,42.805,6.029,CST-1368DR,7742,10842,15357,0.067,551
2019-09-29T00:46:03,42.805,6.029,CST-1368DR,7742,10841,15356,0.067,551
2019-09-29T00:49:05,42.805,6.029,CST-1368DR,7742,10841,15356,0.067,551
2019-09-29T00:52:06,42.805,6.029,CST-1368DR,7742,10841,15355,0.067,551
2019-09-29T00:55:08,42.805,6.029,CST-1368DR,7741,10842,15359,0.066,551
2019-09-29T00:58:09,42.805,6.029,CST-1368DR,7742,10841,15356,0.067,551
2019-09-29T01:01:11,42.805,6.029,CST-1368DR,7741,10841,15357,0.067,551
2019-09-29T01:04:13,42.805,6.029,CST-1368DR,7741,10842,15359,0.066,550
2019-09-29T01:07:14,42.805,6.029,CST-1368DR,7741,10840,15357,0.067,551
2019-09-29T01:10:16,42.805,6.029,CST-1368DR,7741,10841,15357,0.067,551
2019-09-29T01:13:18,42.805,6.029,CST-1368DR,7741,10839,15355,0.067,551
2019-09-29T01:16:19,42.805,6.029,CST-1368DR,7741,10840,15356,0.067,551
2019-09-29T01:19:21,42.805,6.029,CST-1368DR,7741,10841,15357,0.067,551
2019-09-29T01:22:22,42.805,6.029,CST-1368DR,7741,10842,15358,0.067,551
2019-09-29T01:25:24,42.805,6.029,CST-1368DR,7741,10840,15357,0.067,551
2019-09-29T01:28:26,42.805,6.029,CST-1368DR,7741,10840,15357,0.067,551
2019-09-29T01:31:27,42.805,6.029,CST-1368DR,7741,10839,15355,0.067,551
2019-09-29T01:34:29,42.805,6.029,CST-1368DR,7741,10839,15355,0.067,551
2019-09-29T01:37:31,42.805,6.029,CST-1368DR,7741,10839,15354,0.068,551
2019-09-29T01:40:32,42.805,6.029,CST-1368DR,7741,10840,15357,0.067,551
2019-09-29T01:43:34,42.805,6.029,CST-1368DR,7741,10839,15355,0.067,551
2019-09-29T01:46:36,42.805,6.029,CST-1368DR,7741,10840,15357,0.067,550
2019-09-29T01:49:37,42.805,6.029,CST-1368DR,7741,10842,15358,0.067,551
2019-09-29T01:52:39,42.805,6.029,CST-1368DR,7741,10841,15358,0.067,551
2019-09-29T01:55:41,42.805,6.029,CST-1368DR,7741,10840,15356,0.067,551
2019-09-29T01:58:42,42.805,6.029,CST-1368DR,7741,10841,15357,0.067,551
2019-09-29T02:01:44,42.805,6.029,CST-1368DR,7741,10841,15358,0.067,551
2019-09-29T02:04:45,42.805,6.029,CST-1368DR,7741,10841,15358,0.067,551
2019-09-29T02:07:47,42.805,6.029,CST-1368DR,7741,10839,15355,0.067,551
2019-09-29T02:10:49,42.805,6.029,CST-1368DR,7741,10841,15357,0.067,551
2019-09-29T02:13:50,42.805,6.029,CST-1368DR,7741,10839,15355,0.067,551
2019-09-29T02:16:52,42.805,6.029,CST-1368DR,7741,10840,15356,0.067,551
2019-09-29T02:19:54,42.805,6.029,CST-1368DR,7741,10840,15357,0.067,551
2019-09-29T02:22:55,42.805,6.029,CST-1368DR,7741,10840,15356,0.067,551
2019-09-29T02:25:57,42.805,6.029,CST-1368DR,7741,10840,15357,0.067,551
2019-09-29T02:28:59,42.805,6.029,CST-1368DR,7741,10840,15356,0.067,550
2019-09-29T02:32:00,42.805,6.029,CST-1368DR,7741,10841,15357,0.067,551
2019-09-29T02:35:02,42.805,6.029,CST-1368DR,7741,10840,15356,0.067,551
2019-09-29T02:38:04,42.805,6.029,CST-1368DR,7741,10841,15357,0.067,551
2019-09-29T02:41:05,42.805,6.029,CST-1368DR,7741,10839,15355,0.067,551
2019-09-29T02:44:07,42.805,6.029,CST-1368DR,7741,10840,15357,0.067,551
2019-09-29T02:47:09,42.805,6.029,CST-1368DR,7741,10838,15353,0.068,551
2019-09-29T02:50:10,42.805,6.029,CST-1368DR,7741,10838,15354,0.068,551
2019-09-29T02:53:12,42.805,6.029,CST-1368DR,7741,10840,15356,0.067,551
2019-09-29T02:56:14,42.805,6.029,CST-1368DR,7741,10839,15355,0.067,551
2019-09-29T02:59:15,42.805,6.029,CST-1368DR,7741,10840,15356,0.067,551
2019-09-29T03:02:17,42.805,6.029,CST-1368DR,7741,10840,15356,0.067,551
2019-09-29T03:05:18,42.805,6.029,CST-1368DR,7741,10840,15356,0.067,551
2019-09-29T03:08:20,42.805,6.029,CST-1368DR,7741,10839,15355,0.067,551
2019-09-29T03:11:22,42.805,6.029,CST-1368DR,7741,10840,15357,0.067,551
2019-09-29T03:14:23,42.805,6.029,CST-1368DR,7740,10839,15357,0.067,551
2019-09-29T03:17:25,42.805,6.029,CST-1368DR,7740,10840,15358,0.067,551
2019-09-29T03:20:27,42.805,6.029,CST-1368DR,7740,10841,15359,0.066,551
2019-09-29T03:23:28,42.805,6.029,CST-1368DR,7740,10838,15356,0.067,551
2019-09-29T03:26:30,42.805,6.029,CST-1368DR,7740,10838,15356,0.067,551
2019-09-29T03:29:32,42.805,6.029,CST-1368DR,7740,10840,15358,0.067,551
2019-09-29T03:32:33,42.805,6.029,CST-1368DR,7740,10839,15356,0.067,551
2019-09-29T03:35:35,42.805,6.029,CST-1368DR,7740,10839,15356,0.067,551
2019-09-29T03:38:37,42.805,6.029,CST-1368DR,7740,10839,15357,0.067,551
2019-09-29T03:41:39,42.805,6.029,CST-1368DR,7740,10838,15355,0.067,551
2019-09-29T03:44:40,42.805,6.029,CST-1368DR,7740,10839,15357,0.067,551
2019-09-29T03:47:42,42.805,6.029,CST-1368DR,7740,10838,15355,0.067,550
2019-09-29T03:50:44,42.805,6.029,CST-1368DR,7740,10839,15356,0.067,550
2019-09-29T03:53:45,42.805,6.029,CST-1368DR,7740,10838,15355,0.067,551
2019-09-29T03:56:47,42.805,6.029,CST-1368DR,7740,10840,15357,0.067,551
2019-09-29T03:59:48,42.805,6.029,CST-1368DR,7740,10839,15356,0.067,551
2019-09-29T04:02:50,42.805,6.029,CST-1368DR,7740,10840,15359,0.066,551
2019-09-29T04:05:52,42.805,6.029,CST-1368DR,7740,10839,15357,0.067,551
2019-09-29T04:08:53,42.805,6.029,CST-1368DR,7740,10840,15357,0.067,551
2019-09-29T04:11:55,42.805,6.029,CST-1368DR,7740,10839,15356,0.067,551
2019-09-29T04:14:57,42.805,6.029,CST-1368DR,7740,10839,15357,0.067,551
2019-09-29T04:17:58,42.805,6.029,CST-1368DR,7740,10839,15356,0.067,551
2019-09-29T04:21:00,42.805,6.029,CST-1368DR,7740,10839,15357,0.067,550
2019-09-29T04:24:02,42.805,6.029,CST-1368DR,7740,10839,15357,0.067,551
2019-09-29T04:27:03,42.805,6.029,CST-1368DR,7740,10839,15356,0.067,551
2019-09-29T04:30:05,42.805,6.029,CST-1368DR,7740,10835,15351,0.068,551
2019-09-29T04:33:07,42.805,6.029,CST-1368DR,7740,10838,15355,0.067,550
2019-09-29T04:36:08,42.805,6.029,CST-1368DR,7740,10837,15354,0.068,551
2019-09-29T04:39:10,42.805,6.029,CST-1368DR,7740,10839,15356,0.067,551
2019-09-29T04:42:11,42.805,6.029,CST-1368DR,7740,10838,15355,0.067,550
2019-09-29T04:45:13,42.805,6.029,CST-1368DR,7740,10838,15355,0.067,551
2019-09-29T04:48:15,42.805,6.029,CST-1368DR,7740,10839,15357,0.067,551
2019-09-29T04:51:16,42.805,6.029,CST-1368DR,7740,10837,15354,0.068,551
2019-09-29T04:54:18,42.805,6.029,CST-1368DR,7740,10838,15356,0.067,551
2019-09-29T04:57:20,42.805,6.029,CST-1368DR,7740,10837,15354,0.068,551
2019-09-29T05:00:21,42.805,6.029,CST-1368DR,7740,10838,15356,0.067,551
2019-09-29T05:03:23,42.805,6.029,CST-1368DR,7740,10838,15355,0.067,551
2019-09-29T05:06:24,42.805,6.029,CST-1368DR,7740,10838,15355,0.067,551
2019-09-29T05:09:26,42.805,6.029,CST-1368DR,7740,10838,15356,0.067,551
2019-09-29T05:12:28,42.805,6.029,CST-1368DR,7740,10839,15356,0.067,551
2019-09-29T05:15:29,42.805,6.029,CST-1368DR,7740,10838,15355,0.067,551
2019-09-29T05:18:31,42.805,6.029,CST-1368DR,7740,10838,15356,0.067,551
2019-09-29T05:21:33,42.805,6.029,CST-1368DR,7740,10838,15356,0.067,550
2019-09-29T05:24:34,42.805,6.029,CST-1368DR,7740,10839,15356,0.067,551
2019-09-29T05:27:36,42.805,6.029,CST-1368DR,7739,10838,15357,0.067,551
2019-09-29T05:30:38,42.805,6.029,CST-1368DR,7739,10839,15358,0.067,551
2019-09-29T05:33:39,42.805,6.029,CST-1368DR,7739,10838,15357,0.067,550
2019-09-29T05:36:41,42.805,6.029,CST-1368DR,7739,10839,15358,0.067,551
2019-09-29T05:39:43,42.805,6.029,CST-1368DR,7739,10838,15356,0.067,551
2019-09-29T05:42:44,42.805,6.029,CST-1368DR,7739,10838,15357,0.067,551
2019-09-29T05:45:46,42.805,6.029,CST-1368DR,7739,10838,15358,0.067,551
2019-09-29T05:48:48,42.805,6.029,CST-1368DR,7739,10839,15358,0.067,551
2019-09-29T05:51:50,42.805,6.029,CST-1368DR,7739,10836,15354,0.068,551
2019-09-29T05:54:51,42.805,6.029,CST-1368DR,7739,10838,15356,0.067,551
2019-09-29T05:57:53,42.805,6.029,CST-1368DR,7739,10838,15357,0.067,551
2019-09-29T06:00:54,42.805,6.029,CST-1368DR,7739,10839,15358,0.067,551
2019-09-29T06:03:56,42.805,6.029,CST-1368DR,7739,10837,15356,0.067,550
2019-09-29T06:06:58,42.805,6.029,CST-1368DR,7739,10838,15357,0.067,551
2019-09-29T06:09:59,42.805,6.029,CST-1368DR,7739,10837,15356,0.067,551
2019-09-29T06:13:01,42.805,6.029,CST-1368DR,7739,10837,15356,0.067,550
2019-09-29T06:16:03,42.805,6.029,CST-1368DR,7739,10837,15356,0.067,551
2019-09-29T06:19:04,42.805,6.029,CST-1368DR,7739,10838,15357,0.067,551
2019-09-29T06:22:06,42.805,6.029,CST-1368DR,7739,10837,15356,0.067,551
2019-09-29T06:25:07,42.805,6.029,CST-1368DR,7739,10839,15358,0.067,551
2019-09-29T06:28:09,42.805,6.029,CST-1368DR,7739,10839,15358,0.067,551
2019-09-29T06:31:11,42.805,6.029,CST-1368DR,7739,10835,15352,0.068,551
2019-09-29T06:34:13,42.805,6.029,CST-1368DR,7739,10838,15357,0.067,551
2019-09-29T06:37:14,42.805,6.029,CST-1368DR,7739,10838,15356,0.067,551
2019-09-29T06:40:16,42.805,6.029,CST-1368DR,7739,10837,15356,0.067,551
2019-09-29T06:43:18,42.805,6.029,CST-1368DR,7739,10838,15357,0.067,551
2019-09-29T06:46:19,42.805,6.029,CST-1368DR,7739,10837,15356,0.067,551
2019-09-29T06:49:21,42.805,6.029,CST-1368DR,7739,10838,15358,0.067,551
2019-09-29T06:52:22,42.805,6.029,CST-1368DR,7739,10838,15356,0.067,551
2019-09-29T06:55:24,42.805,6.029,CST-1368DR,7739,10834,15351,0.068,551
2019-09-29T06:58:26,42.805,6.029,CST-1368DR,7739,10837,15356,0.067,550
2019-09-29T07:01:27,42.805,6.029,CST-1368DR,7739,10835,15353,0.068,551
2019-09-29T07:04:29,42.805,6.029,CST-1368DR,7739,10838,15357,0.067,551
2019-09-29T07:07:31,42.805,6.029,CST-1368DR,7739,10836,15354,0.068,551
2019-09-29T07:10:32,42.805,6.029,CST-1368DR,7739,10837,15355,0.067,551
2019-09-29T07:13:34,42.805,6.029,CST-1368DR,7738,10836,15356,0.067,551
2019-09-29T07:16:36,42.805,6.029,CST-1368DR,7739,10838,15357,0.067,551
2019-09-29T07:19:37,42.805,6.029,CST-1368DR,7738,10838,15358,0.067,551
2019-09-29T07:22:39,42.805,6.029,CST-1368DR,7739,10836,15354,0.068,551
2019-09-29T07:25:40,42.805,6.029,CST-1368DR,7738,10835,15355,0.067,551
2019-09-29T07:28:42,42.805,6.029,CST-1368DR,7738,10836,15357,0.067,551
2019-09-29T07:31:44,42.805,6.029,CST-1368DR,7738,10837,15357,0.067,551
2019-09-29T07:34:45,42.805,6.029,CST-1368DR,7738,10837,15358,0.067,551
2019-09-29T07:37:47,42.805,6.029,CST-1368DR,7738,10837,15358,0.067,551
2019-09-29T07:40:49,42.805,6.029,CST-1368DR,7738,10838,15358,0.067,551
2019-09-29T07:43:50,42.805,6.029,CST-1368DR,7738,10837,15357,0.067,551
2019-09-29T07:46:52,42.805,6.029,CST-1368DR,7738,10836,15356,0.067,551
2019-09-29T07:49:53,42.805,6.029,CST-1368DR,7738,10835,15355,0.067,551
2019-09-29T07:52:55,42.805,6.029,CST-1368DR,7738,10836,15356,0.067,551
2019-09-29T07:55:57,42.805,6.029,CST-1368DR,7738,10837,15358,0.067,551
2019-09-29T07:58:58,42.805,6.029,CST-1368DR,7738,10836,15356,0.067,551
2019-09-29T08:02:00,42.805,6.029,CST-1368DR,7738,10837,15358,0.067,551
2019-09-29T08:05:02,42.805,6.029,CST-1368DR,7738,10837,15357,0.067,551
2019-09-29T08:08:03,42.805,6.029,CST-1368DR,7738,10836,15356,0.067,550
2019-09-29T08:11:05,42.805,6.029,CST-1368DR,7738,10837,15357,0.067,551
2019-09-29T08:14:06,42.805,6.029,CST-1368DR,7738,10836,15356,0.067,551
2019-09-29T08:17:08,42.805,6.029,CST-1368DR,7738,10836,15356,0.067,551
2019-09-29T08:20:10,42.805,6.029,CST-1368DR,7738,10836,15356,0.067,550
2019-09-29T08:23:11,42.805,6.029,CST-1368DR,7738,10838,15358,0.067,551
2019-09-29T08:26:13,42.805,6.029,CST-1368DR,7738,10837,15358,0.067,550
2019-09-29T08:29:15,42.805,6.029,CST-1368DR,7738,10837,15357,0.067,551
2019-09-29T08:32:16,42.805,6.029,CST-1368DR,7738,10837,15357,0.067,551
2019-09-29T08:35:18,42.805,6.029,CST-1368DR,7738,10835,15355,0.067,551
2019-09-29T08:38:19,42.805,6.029,CST-1368DR,7738,10836,15356,0.067,551
2019-09-29T08:41:21,42.805,6.029,CST-1368DR,7738,10836,15356,0.067,551
2019-09-29T08:44:23,42.805,6.029,CST-1368DR,7738,10836,15357,0.067,551
2019-09-29T08:47:24,42.805,6.029,CST-1368DR,7738,10835,15354,0.068,551
2019-09-29T08:50:26,42.805,6.029,CST-1368DR,7738,10836,15356,0.067,551
2019-09-29T08:53:28,42.805,6.029,CST-1368DR,7738,10836,15356,0.067,551
2019-09-29T08:56:29,42.805,6.029,CST-1368DR,7738,10836,15356,0.067,551
2019-09-29T08:59:31,42.805,6.029,CST-1368DR,7738,10836,15356,0.067,551
2019-09-29T09:02:32,42.805,6.029,CST-1368DR,7738,10836,15356,0.067,551
2019-09-29T09:05:34,42.805,6.029,CST-1368DR,7738,10836,15356,0.067,551
2019-09-29T09:08:36,42.805,6.029,CST-1368DR,7738,10836,15356,0.067,551
2019-09-29T09:11:37,42.805,6.029,CST-1368DR,7738,10836,15356,0.067,551
2019-09-29T09:14:39,42.805,6.029,CST-1368DR,7738,10836,15356,0.067,551
2019-09-29T09:17:41,42.805,6.029,CST-1368DR,7738,10835,15355,0.067,551
2019-09-29T09:20:42,42.805,6.029,CST-1368DR,7738,10836,15356,0.067,551
2019-09-29T09:23:44,42.805,6.029,CST-1368DR,7738,10836,15357,0.067,551
2019-09-29T09:26:46,42.805,6.029,CST-1368DR,7738,10835,15355,0.067,551
2019-09-29T09:29:47,42.805,6.029,CST-1368DR,7738,10835,15354,0.068,551
2019-09-29T09:32:49,42.805,6.029,CST-1368DR,7738,10835,15354,0.068,551
2019-09-29T09:35:50,42.805,6.029,CST-1368DR,7738,10835,15354,0.068,551
2019-09-29T09:38:52,42.805,6.029,CST-1368DR,7737,10836,15358,0.067,550
2019-09-29T09:41:54,42.805,6.029,CST-1368DR,7738,10836,15357,0.067,551
2019-09-29T09:44:55,42.805,6.029,CST-1368DR,7737,10836,15358,0.067,551
2019-09-29T09:47:57,42.805,6.029,CST-1368DR,7737,10835,15356,0.067,551
2019-09-29T09:50:59,42.805,6.029,CST-1368DR,7737,10836,15358,0.067,551
2019-09-29T09:54:00,42.805,6.029,CST-1368DR,7737,10835,15357,0.067,551
2019-09-29T09:57:02,42.805,6.029,CST-1368DR,7737,10835,15356,0.067,551
2019-09-29T10:00:03,42.805,6.029,CST-1368DR,7737,10836,15357,0.067,551
2019-09-29T10:03:05,42.805,6.029,CST-1368DR,7737,10834,15356,0.067,551
2019-09-29T10:06:07,42.805,6.029,CST-1368DR,7737,10835,15356,0.067,551
2019-09-29T10:09:08,42.805,6.029,CST-1368DR,7737,10835,15357,0.067,551
2019-09-29T10:12:10,42.805,6.029,CST-1368DR,7737,10834,15355,0.067,551
2019-09-29T10:15:12,42.805,6.029,CST-1368DR,7737,10834,15356,0.067,550
2019-09-29T10:18:14,42.805,6.029,CST-1368DR,7737,10836,15358,0.067,551
2019-09-29T10:21:15,42.805,6.029,CST-1368DR,7737,10836,15357,0.067,551
2019-09-29T10:24:17,42.805,6.029,CST-1368DR,7737,10834,15356,0.067,551
2019-09-29T10:27:18,42.805,6.029,CST-1368DR,7737,10835,15356,0.067,551
2019-09-29T10:30:20,42.805,6.029,CST-1368DR,7737,10835,15357,0.067,551
2019-09-29T10:33:22,42.805,6.029,CST-1368DR,7737,10832,15352,0.068,551
2019-09-29T10:36:23,42.805,6.029,CST-1368DR,7737,10832,15353,0.068,551
2019-09-29T10:39:25,42.805,6.029,CST-1368DR,7737,10835,15356,0.067,551
2019-09-29T10:42:27,42.805,6.029,CST-1368DR,7737,10834,15356,0.067,551
2019-09-29T10:45:28,42.805,6.029,CST-1368DR,7737,10834,15355,0.067,551
2019-09-29T10:48:30,42.805,6.029,CST-1368DR,7737,10834,15355,0.067,551
2019-09-29T10:51:31,42.805,6.029,CST-1368DR,7737,10835,15356,0.067,551
2019-09-29T10:54:33,42.805,6.029,CST-1368DR,7737,10834,15356,0.067,551
2019-09-29T10:57:35,42.805,6.029,CST-1368DR,7737,10830,15350,0.069,551
2019-09-29T11:00:36,42.805,6.029,CST-1368DR,7737,10834,15355,0.067,551
2019-09-29T11:03:38,42.805,6.029,CST-1368DR,7737,10833,15353,0.068,551
2019-09-29T11:06:40,42.805,6.029,CST-1368DR,7737,10834,15355,0.067,551
2019-09-29T11:09:41,42.805,6.029,CST-1368DR,7737,10832,15352,0.068,551
2019-09-29T11:12:43,42.805,6.029,CST-1368DR,7737,10835,15356,0.067,551
2019-09-29T11:15:44,42.805,6.029,CST-1368DR,7737,10834,15355,0.067,551
2019-09-29T11:18:46,42.805,6.029,CST-1368DR,7737,10830,15349,0.069,551
2019-09-29T11:21:48,42.805,6.029,CST-1368DR,7737,10835,15356,0.067,551
2019-09-29T11:24:49,42.805,6.029,CST-1368DR,7737,10835,15356,0.067,551
2019-09-29T11:27:51,42.805,6.029,CST-1368DR,7737,10835,15356,0.067,551
2019-09-29T11:30:53,42.805,6.029,CST-1368DR,7737,10832,15353,0.068,551
2019-09-29T11:33:54,42.805,6.029,CST-1368DR,7737,10834,15355,0.067,551
2019-09-29T11:36:56,42.805,6.029,CST-1368DR,7737,10832,15352,0.068,551
2019-09-29T11:39:57,42.805,6.029,CST-1368DR,7737,10830,15349,0.069,551
2019-09-29T11:42:59,42.805,6.029,CST-1368DR,7737,10833,15353,0.068,551
2019-09-29T11:46:01,42.805,6.029,CST-1368DR,7736,10834,15357,0.067,551
2019-09-29T11:49:02,42.805,6.029,CST-1368DR,7737,10833,15353,0.068,551
2019-09-29T11:52:04,42.805,6.029,CST-1368DR,7737,10834,15355,0.067,550
2019-09-29T11:55:06,42.805,6.029,CST-1368DR,7736,10832,15354,0.068,551
2019-09-29T11:58:07,42.805,6.029,CST-1368DR,7736,10833,15355,0.067,551
2019-09-29T12:01:09,42.805,6.029,CST-1368DR,7736,10832,15355,0.067,550
2019-09-29T12:04:11,42.805,6.029,CST-1368DR,7736,10834,15357,0.067,551
2019-09-29T12:07:12,42.805,6.029,CST-1368DR,7736,10833,15355,0.067,551
2019-09-29T12:10:14,42.805,6.029,CST-1368DR,7736,10834,15357,0.067,551
2019-09-29T12:13:15,42.805,6.029,CST-1368DR,7736,10831,15353,0.068,551
2019-09-29T12:16:17,42.805,6.029,CST-1368DR,7736,10834,15356,0.067,551
2019-09-29T12:19:19,42.805,6.029,CST-1368DR,7736,10833,15356,0.067,551
2019-09-29T12:22:20,42.805,6.029,CST-1368DR,7736,10830,15351,0.068,551
2019-09-29T12:25:22,42.805,6.029,CST-1368DR,7736,10834,15356,0.067,551
2019-09-29T12:28:24,42.805,6.029,CST-1368DR,7736,10833,15355,0.067,551
2019-09-29T12:31:25,42.805,6.029,CST-1368DR,7736,10832,15354,0.068,551
2019-09-29T12:34:27,42.805,6.029,CST-1368DR,7736,10834,15356,0.067,551
2019-09-29T12:37:28,42.805,6.029,CST-1368DR,7736,10832,15354,0.068,550
2019-09-29T12:40:30,42.805,6.029,CST-1368DR,7736,10834,15356,0.067,551
2019-09-29T12:43:32,42.805,6.029,CST-1368DR,7736,10833,15355,0.067,551
2019-09-29T12:46:33,42.805,6.029,CST-1368DR,7736,10834,15356,0.067,550
2019-09-29T12:49:35,42.805,6.029,CST-1368DR,7736,10833,15355,0.067,551
2019-09-29T12:52:37,42.805,6.029,CST-1368DR,7736,10834,15357,0.067,551
2019-09-29T12:55:38,42.805,6.029,CST-1368DR,7736,10834,15357,0.067,551
2019-09-29T12:58:40,42.805,6.029,CST-1368DR,7736,10833,15356,0.067,551
2019-09-29T13:01:42,42.805,6.029,CST-1368DR,7736,10831,15352,0.068,551
2019-09-29T13:04:43,42.805,6.029,CST-1368DR,7736,10833,15356,0.067,551
2019-09-29T13:07:45,42.805,6.029,CST-1368DR,7736,10833,15355,0.067,551
2019-09-29T13:10:46,42.805,6.029,CST-1368DR,7736,10832,15355,0.067,551
2019-09-29T13:13:48,42.805,6.029,CST-1368DR,7736,10832,15355,0.067,551
2019-09-29T13:16:50,42.805,6.029,CST-1368DR,7736,10834,15357,0.067,551
2019-09-29T13:19:51,42.805,6.029,CST-1368DR,7736,10829,15350,0.069,551
2019-09-29T13:22:53,42.805,6.029,CST-1368DR,7736,10832,15354,0.068,551
2019-09-29T13:25:55,42.805,6.029,CST-1368DR,7736,10833,15356,0.067,551
2019-09-29T13:28:56,42.805,6.029,CST-1368DR,7736,10833,15355,0.067,551
2019-09-29T13:31:58,42.805,6.029,CST-1368DR,7736,10832,15354,0.068,550
2019-09-29T13:34:59,42.805,6.029,CST-1368DR,7736,10832,15355,0.067,551
2019-09-29T13:38:01,42.805,6.029,CST-1368DR,7736,10832,15354,0.068,551
2019-09-29T13:41:03,42.805,6.029,CST-1368DR,7736,10830,15352,0.068,550
2019-09-29T13:44:04,42.805,6.029,CST-1368DR,7736,10833,15355,0.067,551
2019-09-29T13:47:06,42.805,6.029,CST-1368DR,7736,10833,15355,0.067,551
2019-09-29T13:50:08,42.805,6.029,CST-1368DR,7736,10832,15355,0.067,551
2019-09-29T13:53:09,42.805,6.029,CST-1368DR,7736,10832,15354,0.068,551
2019-09-29T13:56:11,42.805,6.029,CST-1368DR,7736,10832,15355,0.067,551
2019-09-29T13:59:13,42.805,6.029,CST-1368DR,7736,10832,15354,0.068,551
2019-09-29T14:02:14,42.805,6.029,CST-1368DR,7736,10833,15355,0.067,551
2019-09-29T14:05:16,42.805,6.029,CST-1368DR,7736,10831,15352,0.068,551
2019-09-29T14:08:17,42.805,6.029,CST-1368DR,7735,10832,15355,0.067,551
2019-09-29T14:11:19,42.805,6.029,CST-1368DR,7735,10832,15355,0.067,551
2019-09-29T14:14:21,42.805,6.029,CST-1368DR,7735,10830,15354,0.068,550
2019-09-29T14:17:22,42.805,6.029,CST-1368DR,7736,10832,15354,0.068,551
2019-09-29T14:20:24,42.805,6.029,CST-1368DR,7735,10832,15355,0.067,551
2019-09-29T14:23:26,42.805,6.029,CST-1368DR,7735,10833,15358,0.067,550
2019-09-29T14:26:27,42.805,6.029,CST-1368DR,7735,10831,15354,0.068,551
2019-09-29T14:29:29,42.805,6.029,CST-1368DR,7735,10832,15355,0.067,551
2019-09-29T14:32:31,42.805,6.029,CST-1368DR,7735,10831,15354,0.068,551
2019-09-29T14:35:33,42.805,6.029,CST-1368DR,7735,10830,15353,0.068,551
2019-09-29T14:38:34,42.805,6.029,CST-1368DR,7735,10830,15353,0.068,551
2019-09-29T14:41:36,42.805,6.029,CST-1368DR,7735,10828,15350,0.069,551
2019-09-29T14:44:38,42.805,6.029,CST-1368DR,7735,10831,15355,0.067,551
2019-09-29T14:47:39,42.805,6.029,CST-1368DR,7735,10831,15355,0.067,551
2019-09-29T14:50:41,42.805,6.029,CST-1368DR,7735,10832,15355,0.067,551
2019-09-29T14:53:43,42.805,6.029,CST-1368DR,7735,10832,15355,0.067,551
2019-09-29T14:56:44,42.805,6.029,CST-1368DR,7735,10831,15355,0.067,551
2019-09-29T14:59:46,42.805,6.029,CST-1368DR,7735,10831,15354,0.068,551
2019-09-29T15:02:47,42.805,6.029,CST-1368DR,7735,10831,15355,0.067,551
2019-09-29T15:05:49,42.805,6.029,CST-1368DR,7735,10830,15353,0.068,551
2019-09-29T15:08:51,42.805,6.029,CST-1368DR,7735,10832,15356,0.067,551
2019-09-29T15:11:52,42.805,6.029,CST-1368DR,7735,10831,15354,0.068,551
2019-09-29T15:14:54,42.805,6.029,CST-1368DR,7735,10832,15356,0.067,551
2019-09-29T15:17:56,42.805,6.029,CST-1368DR,7735,10832,15356,0.067,551
2019-09-29T15:20:57,42.805,6.029,CST-1368DR,7735,10831,15355,0.067,551
2019-09-29T15:23:59,42.805,6.029,CST-1368DR,7735,10829,15352,0.068,551
2019-09-29T15:27:01,42.805,6.029,CST-1368DR,7735,10831,15354,0.068,551
2019-09-29T15:30:02,42.805,6.029,CST-1368DR,7735,10831,15355,0.067,551
2019-09-29T15:33:04,42.805,6.029,CST-1368DR,7735,10831,15355,0.067,551
2019-09-29T15:36:05,42.805,6.029,CST-1368DR,7735,10831,15355,0.067,551
2019-09-29T15:39:07,42.805,6.029,CST-1368DR,7735,10831,15355,0.067,551
2019-09-29T15:42:09,42.805,6.029,CST-1368DR,7735,10830,15354,0.068,551
2019-09-29T15:45:10,42.805,6.029,CST-1368DR,7735,10831,15354,0.068,551
2019-09-29T15:48:12,42.805,6.029,CST-1368DR,7735,10831,15354,0.068,551
2019-09-29T15:51:14,42.805,6.029,CST-1368DR,7735,10831,15354,0.068,551
2019-09-29T15:54:15,42.805,6.029,CST-1368DR,7735,10832,15356,0.067,550
2019-09-29T15:57:17,42.805,6.029,CST-1368DR,7735,10831,15354,0.068,551
2019-09-29T16:00:18,42.805,6.029,CST-1368DR,7735,10832,15355,0.067,551
2019-09-29T16:03:20,42.805,6.029,CST-1368DR,7734,10658,15111,0.131,551
2019-09-29T16:06:22,42.805,6.029,CST-1368DR,7735,10831,15355,0.067,551
2019-09-29T16:09:23,42.805,6.029,CST-1368DR,7735,10831,15355,0.067,551
2019-09-29T16:12:25,42.805,6.029,CST-1368DR,7735,10830,15353,0.068,551
2019-09-29T16:15:27,42.805,6.029,CST-1368DR,7735,10829,15352,0.068,550
2019-09-29T16:18:28,42.805,6.029,CST-1368DR,7735,10832,15355,0.067,551
2019-09-29T16:21:30,42.805,6.029,CST-1368DR,7735,10831,15355,0.067,551
2019-09-29T16:24:32,42.805,6.029,CST-1368DR,7735,10830,15353,0.068,551
2019-09-29T16:27:33,42.805,6.029,CST-1368DR,7735,10831,15354,0.068,551
2019-09-29T16:30:35,42.805,6.029,CST-1368DR,7735,10830,15353,0.068,551
2019-09-29T16:33:37,42.805,6.029,CST-1368DR,7733,10654,15107,0.133,551
2019-09-29T16:36:38,42.805,6.029,CST-1368DR,7735,10832,15356,0.067,551